Dati Storici

Data ora Umidita' aria (%) Temperatura aria (°C) Rad globale (W/m²) Gonioanemometro (°) Tacoanemometro (m/s) Pioggia (mm)
23-06-2020 02:50 63.5 % 22.325 20.621 -0.006 0 0
23-06-2020 02:40 61 % 22.551 289.836 -0.006 0 0
23-06-2020 02:30 60.1 % 22.783 5.311 -0.018 0 0
23-06-2020 02:20 59.8 % 23.183 1.007 0.313 0 0
23-06-2020 02:10 58.6 % 23.597 19.429 0.881 0 0
23-06-2020 02:00 59.1 % 23.835 24.054 1.513 0 0
23-06-2020 01:50 57.1 % 24.142 18.582 0.525 0 0
23-06-2020 01:40 56.3 % 24.069 88.058 0.121 0 0
23-06-2020 01:30 57.9 % 24.112 102.714 -0.027 0 0
23-06-2020 01:20 58.3 % 24.531 58.816 -0.027 0 0
23-06-2020 01:10 55.7 % 24.908 144.934 -0.028 0 0
23-06-2020 01:00 55.5 % 25.065 110.417 -0.03 0 0
23-06-2020 00:50 55.4 % 25.134 36.4 -0.03 0 0
23-06-2020 00:40 55 % 25.138 53.661 -0.032 0 0
23-06-2020 00:30 54.3 % 25.392 52.049 -0.03 0 0
23-06-2020 00:20 54.5 % 25.487 59.454 -0.029 0 0
23-06-2020 00:10 53.8 % 25.487 0.921 -0.03 0 0
23-06-2020 00:00 53.1 % 25.513 36.62 -0.031 0 0
22-06-2020 23:50 51.6 % 25.725 57.994 -0.032 0 0
22-06-2020 23:40 51.2 % 25.82 83.515 -0.032 0 0

I dati sono presentati in modo automatico a scopo informativo. In seguito a verifica i dati possono subire modifiche o essere invalidati e non riportati negli archivi definitivi.